カタログに戻る

SL-16 DEB

運用中PO
NORAD 25862·DEBRIS·🇷🇺 Russia

打ち上げ Jul 17, 1999 から Baikonur Cosmodrome

Loading…

次のパス (今後24時間)

TLE

最新Source: Space-Track

元期: Sep 14, 2026, 08:52 UTC

1 25862U 99039C   26257.36961885  .00000392  00000-0  10932-3 0  9993
2 25862  97.7396 228.6438 0154527 211.7470 147.4336 14.44436729425671

AllMySatでSL-16 DEBをリアルタイム追跡

Download on the App Store